Location: Arroyo de Pe�alara
(40.8683°N, 4.0264°W)
Time: 01:48:01
(UTC+00:00)

Daily predictions for brighter satellites

Satellite Brightness Start Highest point End
(mag) Time Altitude Azimuth Time Altitude Azimuth Time Altitude Azimuth
Lacrosse 4 Rocket 3.9 00:13:01 18° NE 00:13:01 18° NE 00:14:09 10° NNE
Cosmos 2233 Rocket 4.2 00:10:46 65° NW 00:10:46 65° NW 00:16:24 10° N
Cosmos 2219 Rocket 3.4 00:06:11 10° N 00:11:13 35° NE 00:11:13 35° NE
Cosmos 2322 Rocket 3.6 00:14:23 10° NW 00:17:43 30° WNW 00:17:43 30° WNW
COSMOS 2428 3.6 00:24:07 10° NNW 00:29:12 43° NE 00:29:12 43° NE
CENTAUR R/B 4.3 00:27:24 17° W 00:31:02 28° NW 00:37:01 10° NNE
Cosmos 2360 Rocket 3.3 00:29:52 10° NNW 00:33:24 36° NW 00:33:24 36° NW
CZ-2D R/B 4.3 00:35:28 10° NE 00:38:05 16° E 00:38:05 16° E
Cosmos 2297 Rocket 4.1 00:45:36 20° E 00:45:36 20° E 00:48:26 10° NE
Cosmos 2333 Rocket 2.8 00:43:39 10° NNW 00:48:11 56° N 00:48:11 56° N
Cosmos 2237 Rocket 3.7 00:53:37 10° N 00:58:32 30° NE 00:59:51 27° E
Timation 2 Rocket 4.1 01:14:34 65° ENE 01:14:34 65° ENE 01:19:54 10° NNE
SJ 16-02 3.9 01:25:10 14° E 01:25:10 14° E 01:26:43 10° ENE
Cosmos 2227 Rocket 2.9 01:33:34 46° E 01:33:34 46° E 01:38:23 10° NE
Resurs 1-4 Rocket 2.6 01:34:47 10° NNE 01:39:24 53° ENE 01:39:24 53° ENE
SL-19 R/B 4.4 01:37:45 10° N 01:43:22 73° NW 01:43:22 73° NW
ATLAS 3B R/B 4.4 01:40:56 16° WNW 01:44:13 23° NW 01:49:25 10° NNE
NOSS 0 Rocket 3.9 01:38:49 10° NNW 01:44:40 77° WNW 01:44:40 77° WNW
Lacrosse 4 Rocket 4.0 01:49:19 13° NW 01:49:19 13° NW 01:51:12 10° NNW
Cosmos 1634 Rocket 3.8 01:50:27 82° SE 01:50:40 84° E 01:56:56 10° N
Cosmos 2026 Rocket 3.9 01:44:38 10° N 01:50:43 75° E 01:51:08 72° ESE
USA 215 3.3 01:44:47 10° NE 01:51:15 60° SE 01:51:29 59° SE
Cosmos 1627 Rocket 4.3 01:47:09 10° N 01:53:19 83° E 01:53:40 79° SE
Cosmos 2219 Rocket 3.7 01:50:13 10° NW 01:52:54 24° WNW 01:52:54 24° WNW
IRAS Rocket 4.2 01:57:00 84° NNE 01:57:00 84° NNE 02:02:28 10° NNW
SL-4 R/B 4.3 01:58:02 17° N 01:58:45 18° NNE 02:01:14 10° ENE
Cosmos 2142 Rocket 4.5 02:00:56 67° SSE 02:01:42 75° E 02:08:05 10° N
SL-16 R/B 3.5 02:01:59 10° N 02:07:18 38° ENE 02:12:33 10° SE
Meteor 2-5 Rocket 4.1 02:05:08 10° N 02:10:42 58° ENE 02:11:59 46° SE
COSMOS 2428 4.4 02:08:53 10° NW 02:11:10 20° WNW 02:11:10 20° WNW
SL-16 R/B 2.4 02:13:43 70° SW 02:14:14 74° WSW 02:20:31 10° NNW
ARIANE 5 R/B 4.3 02:11:52 10° NE 02:16:08 25° E 02:18:02 20° SE
NOSS 3-1 (C) 4.1 02:17:24 33° SE 02:18:03 34° ESE 02:23:22 10° NE
NPP 3.5 02:12:50 10° N 02:18:15 79° WNW 02:18:22 79° W
CZ-2D R/B 2.2 02:13:49 10° N 02:19:16 66° WNW 02:19:24 66° W
AQUA 3.8 02:19:55 10° N 02:24:26 78° NNW 02:24:26 78° NNW
Cosmos 1766 4.2 02:26:32 44° N 02:26:32 44° N 02:29:18 10° N
Cosmos 2263 Rocket 4.3 02:23:53 12° SE 02:26:38 17° E 02:30:10 10° ENE
ADEOS II 2.3 02:22:18 10° NNE 02:27:31 60° E 02:28:23 52° SE
Cosmos 2297 Rocket 2.5 02:27:24 50° WNW 02:27:50 51° WNW 02:33:21 10° NNE
Meteor 1-22 Rocket 4.1 02:27:12 61° SE 02:27:54 69° E 02:33:10 10° NNE
Cosmos 2219 3.7 02:27:45 43° WNW 02:28:12 43° WNW 02:33:33 10° NNE
IRS-1D 3.4 02:26:17 10° NNE 02:31:22 77° ESE 02:31:54 68° SSE
Cosmos 1980 4.3 02:27:18 10° NW 02:31:38 41° WNW 02:31:38 41° WNW
Okean 1 Rocket 4.0 02:38:14 37° NW 02:38:14 37° NW 02:41:30 10° N
Cosmos 1626 2.8 02:35:57 10° N 02:38:56 53° NNE 02:38:56 53° NNE
Cosmos 2266 Rocket 4.5 02:34:23 10° N 02:40:40 59° E 02:45:02 20° SSE
Cosmos 1655 Rocket 4.0 02:35:17 10° N 02:41:35 79° E 02:44:28 34° SSE
Cosmos 1470 3.6 02:41:43 43° ESE 02:41:59 44° E 02:45:47 10° NNE
Cosmos 2237 Rocket 2.9 02:37:27 10° NW 02:41:37 36° W 02:41:37 36° W
CZ-4B R/B 3.2 02:39:52 10° N 02:44:36 68° WNW 02:44:51 67° W
SL-08 R/B 4.1 02:43:56 20° SE 02:47:08 52° ENE 02:51:57 10° N
Cosmos 923 Rocket 3.9 02:44:02 10° NNW 02:49:23 85° WSW 02:51:06 45° SSE
USA 229 DEB 3.9 02:48:34 38° S 02:50:55 57° ESE 02:57:32 10° NE
USA 229 3.9 02:48:40 37° S 02:51:01 57° ESE 02:57:35 10° NE
Cosmos 2098 Rocket 3.8 02:50:43 10° N 02:55:40 73° E 02:59:34 23° SSE
Cosmos 158 Rocket 4.0 02:51:47 10° NNW 02:57:12 85° ENE 03:00:32 24° SSE
NOSS 3-1 (A) 3.9 03:00:07 31° SSE 03:02:14 45° ESE 03:07:57 10° NE
SJ 16-02 1.7 03:02:10 47° WNW 03:02:22 48° WNW 03:06:40 10° N
ERBS 2.7 03:00:03 10° NW 03:03:33 58° ENE 03:06:33 10° SE
SL-14 R/B 3.4 03:00:19 10° NNW 03:03:47 57° WNW 03:03:47 57° WNW
SL-23 DEB 4.3 03:02:29 10° NW 03:09:08 88° NE 03:13:00 10° SE
Meteor 2-19 Rocket 4.5 03:03:53 10° NNW 03:09:56 60° W 03:12:28 35° SSW
Cosmos 1455 Rocket 3.1 03:11:32 54° SW 03:12:12 63° W 03:16:38 10° N
Cosmos 1758 3.2 03:13:24 56° S 03:14:13 88° W 03:18:16 10° N
DNEPR-1 R/B 4.0 03:09:29 10° NW 03:14:43 47° WSW 03:15:15 45° SW
Cosmos 1626 Rocket 4.3 03:11:41 10° N 03:15:54 50° E 03:19:53 11° SSE
IRS-P3 4.2 03:10:41 10° N 03:15:59 65° WNW 03:17:57 38° SW
Cosmos 2227 Rocket 3.5 03:15:24 22° W 03:17:13 26° NW 03:21:55 10° N
Resurs 1-4 Rocket 3.7 03:15:42 10° NNW 03:19:20 19° WNW 03:20:28 18° W
Spot 4 Rocket 4.3 03:14:43 10° NNE 03:19:52 68° ESE 03:22:59 24° S
Cosmos 1892 Rocket 4.0 03:18:34 10° NNW 03:22:47 42° W 03:23:15 41° WSW
SeaSat 1 3.5 03:19:37 10° NE 03:24:14 39° ESE 03:27:42 16° S
Cosmos 1461 3.5 03:23:26 39° W 03:24:33 48° NW 03:28:57 10° NNE
CZ-2C R/B 3.6 03:24:06 10° NNE 03:27:51 46° E 03:30:09 20° SSE
Cosmos 2227 4.5 03:24:44 24° S 03:28:15 67° ESE 03:33:59 10° NNE
CZ-2D R/B 3.3 03:25:27 10° NNE 03:29:30 87° ESE 03:31:11 34° S
ATLAS CENTAUR R/B 4.1 03:28:26 10° SE 03:30:11 12° ESE 03:31:53 10° E
Cosmos 1340 Rocket 3.0 03:29:56 43° WSW 03:30:46 52° WNW 03:34:40 10° N
ATLAS 3B CENTAUR R/B 3.8 03:27:04 24° SW 03:31:35 34° SSW 03:37:04 10° SE
USA 215 4.0 03:27:58 10° NE 03:34:06 45° NNW 03:38:49 17° W
ERS-2 3.7 03:31:23 10° SE 03:34:44 36° ENE 03:38:05 10° N
Cosmos 1953 2.3 03:35:03 27° S 03:37:10 83° E 03:41:13 10° N
Meteor 2-21 4.4 03:31:45 10° N 03:37:50 88° E 03:43:55 10° S
SL-4 R/B 1.6 03:35:22 10° NW 03:38:47 74° NE 03:42:11 10° ESE
Cosmos 1726 2.0 03:38:39 35° SSW 03:40:06 77° W 03:43:48 10° N
Cosmos 1908 4.5 03:38:43 10° SSE 03:42:22 40° E 03:46:04 10° NNE
Meteor 1-16 Rocket 4.5 03:38:13 11° S 03:43:20 64° E 03:48:45 10° NNE
Cosmos 2112 Rocket 4.3 03:38:35 10° NNW 03:43:29 42° WSW 03:46:47 19° SSW
H-2A R/B 2.1 03:44:55 10° SSE 03:49:02 75° ENE 03:53:08 10° N
Cosmos 1937 Rocket 4.0 03:47:07 25° SW 03:49:53 47° WNW 03:55:01 10° N
SL-16 R/B 3.0 03:46:21 10° NW 03:51:15 30° WSW 03:54:15 19° SSW
ARIANE 5 R/B 3.2 03:50:28 10° N 03:55:19 40° WNW 03:58:22 21° SW
CZ-4C R/B 2.6 03:55:13 10° S 03:58:23 84° WSW 04:01:40 10° NNW
IDEFIX/ARIANE 42P 2.7 03:53:43 10° N 03:58:48 57° WNW 04:02:43 17° SSW
NOSS 2-3 (E) 3.8 03:57:58 23° SW 04:00:29 60° NW 04:05:18 10° NNE
CZ-4B R/B 4.0 03:58:55 10° SE 04:01:36 23° ENE 04:04:14 10° NNE
USA 267 3.2 03:58:16 10° SE 04:04:49 81° SW 04:11:23 10° NW
ADEOS II 3.8 04:03:13 10° NNW 04:06:42 18° WNW 04:09:19 13° W
NOSS 3-1 (C) 4.1 04:04:48 16° WSW 04:08:43 38° NW 04:14:36 10° NNE
Cosmos 2263 Rocket 2.3 04:05:36 16° SW 04:09:58 63° WNW 04:15:31 10° NNE
Cosmos 1703 3.4 04:07:41 10° N 04:11:41 81° E 04:15:38 10° S
Cosmos 372 Rocket 4.1 04:08:12 15° SSW 04:12:28 63° WNW 04:17:41 10° NNE
Cosmos 1553 Rocket 3.9 04:06:34 10° S 04:12:38 89° W 04:18:45 10° N
COSMOS 2441 4.4 04:08:51 10° N 04:13:37 67° WNW 04:18:23 10° SSW
OAO 3 Rocket 4.1 04:15:36 15° SW 04:19:05 35° SSE 04:23:34 10° ESE
Cosmos 1602 Rocket 4.1 04:16:39 10° NNW 04:20:42 38° W 04:24:43 10° SSW
Cosmos 1606 Rocket 3.7 04:16:52 10° S 04:21:19 80° E 04:25:48 10° N
Aureole 3 4.3 04:16:58 10° S 04:21:49 79° E 04:28:03 10° N
Cosmos 1300 4.2 04:20:08 10° SSE 04:23:42 39° E 04:27:16 10° NNE
NOSS 2-3 (D) 4.3 04:21:03 14° WSW 04:24:22 41° NW 04:29:01 10° NNE
Cosmos 1745 Rocket 4.2 04:18:51 10° N 04:25:10 77° E 04:31:23 10° SSE
Cosmos 1125 Rocket 3.7 04:20:27 10° S 04:25:38 73° ESE 04:30:53 10° NNE
CZ-2C R/B 2.3 04:21:05 10° NNE 04:25:41 84° ESE 04:30:18 10° SSW
Cosmos 1603 3.8 04:25:27 10° NNW 04:31:02 55° WSW 04:36:34 10° S
Meteor 2-8 Rocket 4.5 04:26:24 10° SSW 04:32:32 69° W 04:38:39 10° N
Cosmos 1484 Rocket 4.4 04:31:33 10° NNE 04:34:57 34° E 04:38:22 10° SSE
Cosmos 1844 Rocket 3.8 04:31:23 10° S 04:36:39 45° ESE 04:41:56 10° NE
ERBS 4.3 04:38:22 10° WSW 04:39:08 11° WSW 04:39:53 10° SW
Cosmos 1726 Rocket 3.6 04:34:51 10° S 04:39:17 82° W 04:43:47 10° N
S3M 4.1 04:33:14 10° SSW 04:39:36 77° W 04:46:02 10° N
Cosmos 2084 3.8 04:35:37 10° SSW 04:39:57 70° ESE 04:44:23 10° NE
Cosmos 2298 Rocket 4.5 04:38:13 10° SW 04:43:18 46° WNW 04:48:26 10° N
Cosmos 494 Rocket 4.5 04:41:10 10° NNW 04:46:18 67° ENE 04:51:27 10° SSE
ALOS 3.3 04:43:29 10° NNE 04:48:02 50° E 04:52:33 10° S
